New Philadelphia, OH

2:14 AM EDT on September 27, 2016 (GMT -0400)
Clever

Weather History for KPHD - February, 2014

Change the Weather History Date:

Thursday, February 20, 2014

  Actual Average Record
Temperature  
Mean Temperature 38 °F 32 °F  
Max Temperature 54 °F 42 °F 69 °F (1994)
Min Temperature 21 °F 23 °F -12 °F (2015)
Degree Days  
Heating Degree Days 27 33  
Month to date heating degree days 849 683  
Since 1 July heating degree days 4334 3955  
Cooling Degree Days 0 0  
Month to date cooling degree days 0 0  
Year to date cooling degree days 0 0  
Moisture  
Dew Point 30 °F    
Average Humidity 77    
Maximum Humidity 92    
Minimum Humidity 61    
Precipitation  
Precipitation 0.30 in 0.09 in 0.84 in (1981)
Month to date precipitation 1.68 1.65  
Year to date precipitation 3.50 4.25  
Sea Level Pressure  
Sea Level Pressure 29.91 in    
Wind  
Wind Speed 4 mph (SE)    
Max Wind Speed 12 mph    
Max Gust Speed 16 mph    
Visibility 6 miles    
Events Rain , Thunderstorm    
T = Trace of Precipitation, MM = Missing Value Source: NWS Daily Summary

Daily Weather History Graph

Daily Weather History Graph

Search for Another Location

Airport or City:

Trip Planner

Search our weather history database for the weather conditions in past years. The results will help you decide how hot, cold, wet, or windy it might be!

Date:

Astronomy

Feb. 20, 2014 Rise Set
Actual Time 7:12 AM EST 6:06 PM EST
Civil Twilight 6:44 AM EST 6:34 PM EST
Nautical Twilight 6:13 AM EST 7:06 PM EST
Astronomical Twilight 5:41 AM EST 7:37 PM EST
Moon No Moon Rise 9:53 AM EST (2/20)
Length of Visible Light 11h 49m
Length of Day
10h 54m
Waning Gibbous, 71% of the Moon is Illuminated
Feb 20
Waning Gibbous
Feb 22
Last Quarter
Mar 1
New
Mar 8
First Quarter
Mar 16
Full

Hourly Weather History & Observations

Time (EST) Temp. Windchill Dew Point Humidity Pressure Visibility Wind Dir Wind Speed Gust Speed Precip Events Conditions
12:11 AM 26.1 °F - 23.0 °F 88% 30.08 in 2.5 mi Calm Calm - N/A   Clear
12:53 AM 25.0 °F - 21.9 °F 88% 30.12 in 1.8 mi Calm Calm - N/A   Clear
1:08 AM 26.1 °F - 21.9 °F 84% 30.13 in 2.5 mi Calm Calm - N/A   Clear
1:53 AM 26.1 °F - 23.0 °F 88% 30.14 in 2.5 mi Calm Calm - N/A   Clear
2:53 AM 24.1 °F 17.0 °F 19.9 °F 84% 30.14 in 2.0 mi ESE 5.8 mph - N/A   Clear
3:43 AM 23.0 °F - 19.9 °F 88% 30.10 in 3.0 mi Calm Calm - N/A   Clear
3:53 AM 23.0 °F - 19.9 °F 88% 30.13 in 2.5 mi Calm Calm - N/A   Clear
4:53 AM 21.0 °F - 18.0 °F 88% 30.11 in 3.0 mi Calm Calm - N/A   Clear
5:53 AM 21.9 °F - 18.0 °F 85% 30.09 in 3.0 mi Calm Calm - N/A   Clear
6:53 AM 24.1 °F 18.2 °F 21.0 °F 88% 30.08 in 3.0 mi ESE 4.6 mph - N/A   Clear
7:27 AM 26.1 °F 21.9 °F 21.9 °F 84% 30.03 in 2.5 mi ESE 3.5 mph - N/A   Clear
7:53 AM 25.0 °F 20.7 °F 21.9 °F 88% 30.07 in 2.5 mi SE 3.5 mph - N/A   Clear
8:14 AM 27.0 °F 23.0 °F 23.0 °F 85% 30.03 in 1.8 mi ESE 3.5 mph - N/A   Clear
8:22 AM 28.0 °F 21.7 °F 24.1 °F 85% 30.01 in 3.0 mi East 5.8 mph - N/A   Clear
8:53 AM 30.0 °F 24.1 °F 26.1 °F 85% 30.03 in 3.0 mi East 5.8 mph - N/A   Mostly Cloudy
9:53 AM 36.0 °F 29.0 °F 27.0 °F 70% 29.94 in 10.0 mi SE 9.2 mph - N/A   Scattered Clouds
10:53 AM 37.0 °F - 28.0 °F 70% 29.95 in 6.0 mi Calm Calm - 0.01 in Rain Light Rain
11:08 AM 36.0 °F 33.3 °F 30.0 °F 79% 29.91 in 2.5 mi Variable 3.5 mph - 0.05 in Rain , Thunderstorm Heavy Rain
11:14 AM 35.1 °F 32.2 °F 30.0 °F 82% 29.92 in 1.0 mi NW 3.5 mph - 0.12 in Rain , Thunderstorm Heavy Rain
11:23 AM 35.1 °F 30.1 °F 30.9 °F 85% 29.89 in 1.2 mi East 5.8 mph - 0.16 in Rain Rain
11:33 AM 35.1 °F 29.3 °F 32.0 °F 89% 29.88 in 3.0 mi SE 6.9 mph - 0.17 in Rain Light Rain
11:53 AM 37.0 °F 31.6 °F 33.1 °F 86% 29.90 in 9.0 mi SE 6.9 mph - 0.17 in   Overcast
12:53 PM 39.0 °F 34.8 °F 34.0 °F 82% 29.86 in 10.0 mi Variable 5.8 mph - N/A   Overcast
1:20 PM 39.9 °F 37.8 °F 36.0 °F 86% 29.82 in 10.0 mi South 3.5 mph - N/A   Overcast
1:34 PM 39.9 °F 36.7 °F 36.0 °F 86% 29.81 in 10.0 mi SSE 4.6 mph - N/A   Overcast
1:53 PM 42.1 °F 40.2 °F 37.0 °F 82% 29.82 in 10.0 mi SSE 3.5 mph - N/A   Overcast
2:53 PM 46.9 °F - 39.0 °F 74% 29.80 in 10.0 mi Calm Calm - N/A   Clear
3:53 PM 48.9 °F - 39.9 °F 71% 29.79 in 10.0 mi Calm Calm - N/A   Mostly Cloudy
4:53 PM 45.0 °F - 39.0 °F 80% 29.78 in 10.0 mi Calm Calm - N/A   Mostly Cloudy
5:53 PM 48.9 °F - 39.0 °F 69% 29.74 in 10.0 mi SE 9.2 mph - N/A   Scattered Clouds
6:53 PM 48.0 °F - 37.9 °F 68% 29.73 in 10.0 mi SE 9.2 mph - N/A   Scattered Clouds
7:53 PM 48.9 °F - 37.9 °F 66% 29.70 in 10.0 mi SE 9.2 mph - N/A   Partly Cloudy
8:53 PM 50.0 °F - 37.9 °F 63% 29.69 in 10.0 mi SE 9.2 mph - N/A   Partly Cloudy
9:42 PM 52.0 °F - 39.9 °F 63% 29.68 in 10.0 mi SSE 5.8 mph - 0.00 in Thunderstorm Overcast
9:53 PM 52.0 °F - 39.9 °F 63% 29.68 in 10.0 mi SE 6.9 mph - 0.00 in Rain Light Rain
10:53 PM 53.1 °F - 41.0 °F 64% 29.67 in 10.0 mi SSE 6.9 mph - 0.00 in Rain Light Rain
11:45 PM 51.1 °F - 45.0 °F 80% 29.65 in 6.0 mi North - - 0.07 in Rain , Thunderstorm Light Thunderstorms and Rain
11:53 PM 48.9 °F - 44.1 °F 83% 29.66 in 4.0 mi North - - 0.10 in Rain , Thunderstorm Thunderstorms and Rain